Big Rapids, MI

6:17 AM EDT on August 26, 2019 (GMT -0400)
Roben-Hood

Weather History for KRQB - May, 2019

Change the Weather History Date:

Wednesday, May 1, 2019

  Actual Average Record
Temperature  
Mean Temperature 47 °F -  
Max Temperature 52 °F 62 °F 84 °F (1992)
Min Temperature 42 °F 37 °F 24 °F (1978)
Degree Days  
Heating Degree Days 18    
Moisture  
Dew Point 45 °F    
Average Humidity 94    
Maximum Humidity 97    
Minimum Humidity 87    
Precipitation  
Precipitation 0.70 in - - ()
Sea Level Pressure  
Sea Level Pressure 29.96 in    
Wind  
Wind Speed 7 mph (East)    
Max Wind Speed 14 mph    
Max Gust Speed 20 mph    
Visibility 5 miles    
Events Rain    
Averages and records for this station are not official NWS values.
T = Trace of Precipitation, MM = Missing Value Source: NWS Daily Summary

Daily Weather History Graph

Daily Weather History Graph

Search for Another Location

Airport or City:

Astronomy

May. 01, 2019 Rise Set
Actual Time 6:34 AM EDT 8:44 PM EDT
Civil Twilight 6:03 AM EDT 9:15 PM EDT
Nautical Twilight 5:24 AM EDT 9:54 PM EDT
Astronomical Twilight 4:41 AM EDT 10:38 PM EDT
Moon 5:29 AM EDT (5/1) 5:23 PM EDT (5/1)
Length of Visible Light 15h 12m
Length of Day
14h 09m
Waning Crescent, 11% of the Moon is Illuminated
May 1
Waning Crescent
May 4
New
May 11
First Quarter
May 18
Full
May 26
Last Quarter

Hourly Weather History & Observations

Time (EDT) Temp. Windchill Dew Point Humidity Pressure Visibility Wind Dir Wind Speed Gust Speed Precip Events Conditions
5:16 AM 43.2 °F 37.4 °F 41.9 °F 95% 30.02 in 4.0 mi ESE 10.4 mph 19.6 mph 0.02 in   Overcast
5:35 AM 43.2 °F 36.2 °F 41.9 °F 95% 30.01 in 4.0 mi East 13.8 mph 17.3 mph 0.08 in   Unknown
5:55 AM 43.2 °F 36.2 °F 41.9 °F 95% 29.99 in 5.0 mi East 13.8 mph 17.3 mph 0.11 in   Overcast
6:15 AM 43.0 °F 37.2 °F 41.5 °F 95% 29.98 in 5.0 mi ESE 10.4 mph 16.1 mph 0.03 in   Overcast
6:16 AM 43.0 °F 37.7 °F 41.5 °F 95% 29.98 in 5.0 mi ESE 9.2 mph 16.1 mph 0.03 in   Overcast
6:35 AM 42.8 °F 35.8 °F 41.4 °F 95% 29.96 in 4.0 mi East 13.8 mph 19.6 mph 0.06 in   Overcast
6:55 AM 42.8 °F 37.0 °F 41.2 °F 94% 29.97 in 1.5 mi East 10.4 mph - 0.11 in   Unknown
7:15 AM 42.8 °F 38.6 °F 41.2 °F 94% 29.97 in 2.5 mi East 6.9 mph - 0.03 in   Overcast
7:16 AM 42.8 °F 38.6 °F 41.2 °F 94% 29.97 in 2.5 mi East 6.9 mph - 0.03 in   Overcast
7:35 AM 42.8 °F 37.0 °F 41.2 °F 94% 29.95 in 5.0 mi ESE 10.4 mph 19.6 mph 0.05 in   Overcast
7:36 AM 42.8 °F 37.5 °F 41.2 °F 94% 29.95 in 5.0 mi ESE 9.2 mph 19.6 mph 0.05 in Rain Light Rain
7:55 AM 42.8 °F 37.0 °F 41.2 °F 94% 29.94 in 5.0 mi East 10.4 mph - 0.07 in   Unknown
8:15 AM 42.8 °F 37.0 °F 41.2 °F 94% 29.92 in 5.0 mi East 10.4 mph 19.6 mph 0.02 in   Unknown
8:35 AM 42.8 °F 37.0 °F 41.2 °F 94% 29.92 in 4.0 mi East 10.4 mph 19.6 mph 0.05 in   Unknown
8:36 AM 42.8 °F 36.6 °F 41.2 °F 94% 29.92 in 4.0 mi ESE 11.5 mph 16.1 mph 0.05 in   Unknown
8:55 AM 42.8 °F 37.5 °F 41.4 °F 95% 29.91 in 4.0 mi ESE 9.2 mph 16.1 mph 0.08 in   Unknown
8:56 AM 42.8 °F 37.5 °F 41.4 °F 95% 29.91 in 4.0 mi ESE 9.2 mph 16.1 mph 0.09 in   Unknown
9:15 AM 43.0 °F 37.7 °F 41.9 °F 96% 29.90 in 2.0 mi ESE 9.2 mph 16.1 mph 0.06 in   Unknown
9:35 AM 43.2 °F 39.7 °F 41.9 °F 95% 29.89 in 2.0 mi ESE 5.8 mph - 0.11 in   Unknown
9:36 AM 43.2 °F 39.7 °F 41.9 °F 95% 29.89 in 2.5 mi East 5.8 mph - 0.11 in   Unknown
9:55 AM 43.3 °F 39.2 °F 42.1 °F 95% 29.89 in 4.0 mi East 6.9 mph - 0.13 in Rain Light Rain
9:56 AM 43.3 °F 39.9 °F 42.1 °F 95% 29.89 in 4.0 mi East 5.8 mph - 0.13 in   Overcast
10:15 AM 43.3 °F 39.2 °F 42.1 °F 95% 29.87 in 2.0 mi East 6.9 mph - 0.03 in   Overcast
10:35 AM 43.3 °F 38.1 °F 42.1 °F 95% 29.86 in 2.5 mi East 9.2 mph - 0.06 in Rain Light Rain
10:55 AM 43.3 °F 39.2 °F 42.1 °F 95% 29.85 in 1.5 mi ESE 6.9 mph - 0.10 in Rain Light Rain
10:56 AM 43.3 °F 39.2 °F 42.1 °F 95% 29.85 in 1.5 mi ESE 6.9 mph - 0.10 in Rain Light Rain
11:15 AM 43.7 °F 40.3 °F 42.6 °F 96% 29.85 in 2.0 mi ESE 5.8 mph - 0.02 in Rain Light Rain
11:35 AM 44.1 °F 40.1 °F 43.0 °F 96% 29.85 in 2.5 mi ESE 6.9 mph - 0.02 in Rain Light Rain
11:55 AM 44.6 °F 42.2 °F 43.3 °F 95% 29.85 in 7.0 mi SE 4.6 mph - 0.03 in   Light Drizzle
11:56 AM 44.6 °F 42.2 °F 43.3 °F 95% 29.85 in 7.0 mi ESE 4.6 mph - 0.03 in   Light Drizzle
12:15 PM 44.6 °F 42.2 °F 43.5 °F 96% 29.86 in 3.0 mi ESE 4.6 mph - N/A Rain Light Rain
12:16 PM 44.6 °F 42.2 °F 43.5 °F 96% 29.86 in 3.0 mi ESE 4.6 mph - N/A Rain Light Rain
12:35 PM 44.8 °F - 43.7 °F 96% 29.88 in 2.5 mi Calm Calm - 0.03 in Rain Rain
12:55 PM 45.5 °F 44.2 °F 44.2 °F 95% 29.87 in 2.0 mi ENE 3.5 mph - 0.06 in   Overcast
12:56 PM 45.5 °F 43.2 °F 44.2 °F 95% 29.87 in 2.0 mi ENE 4.6 mph - 0.06 in   Overcast
1:15 PM 46.4 °F 44.3 °F 45.1 °F 95% 29.86 in 10.0 mi ENE 4.6 mph - N/A Rain Light Rain
1:16 PM 46.4 °F 43.5 °F 45.1 °F 95% 29.86 in 10.0 mi East 5.8 mph - N/A Rain Light Rain
1:35 PM 47.1 °F - 45.7 °F 95% 29.87 in 10.0 mi SSE 3.5 mph - N/A   Overcast
1:36 PM 47.1 °F - 45.7 °F 95% 29.87 in 10.0 mi SE 3.5 mph - N/A   Overcast
1:55 PM 47.1 °F - 45.7 °F 95% 29.89 in 10.0 mi Calm Calm - N/A   Overcast
2:15 PM 47.5 °F - 46.0 °F 95% 29.89 in 10.0 mi Calm Calm - N/A   Overcast
2:35 PM 48.0 °F - 46.4 °F 94% 29.90 in 2.0 mi Calm Calm - N/A   Overcast
2:55 PM 48.2 °F - 46.6 °F 94% 29.91 in 1.5 mi NNE 4.6 mph - N/A   Overcast
2:56 PM 48.2 °F - 46.6 °F 94% 29.91 in 1.5 mi Calm Calm - N/A   Overcast
3:15 PM 48.7 °F - 47.5 °F 95% 29.91 in 1.8 mi Calm Calm - N/A   Overcast
3:35 PM 48.9 °F - 47.7 °F 95% 29.92 in 5.0 mi Calm Calm - N/A   Overcast
3:55 PM 49.3 °F - 48.2 °F 96% 29.94 in 5.0 mi Calm Calm - N/A   Overcast
3:56 PM 49.3 °F - 48.2 °F 96% 29.94 in 5.0 mi Calm Calm - N/A   Overcast
4:15 PM 49.3 °F - 48.2 °F 96% 29.95 in 5.0 mi Calm Calm - N/A   Overcast
4:35 PM 49.1 °F - 48.2 °F 97% 29.95 in 3.0 mi Calm Calm - N/A   Overcast
4:36 PM 49.1 °F - 48.2 °F 97% 29.95 in 2.5 mi North 3.5 mph - N/A   Overcast
4:55 PM 49.5 °F - 48.4 °F 96% 29.96 in 2.0 mi Calm Calm - N/A   Overcast
5:15 PM 50.2 °F - 49.3 °F 97% 29.97 in 2.0 mi WNW 3.5 mph - N/A   Overcast
5:35 PM 52.2 °F - 50.9 °F 95% 29.97 in 10.0 mi WNW 4.6 mph - N/A   Overcast
5:55 PM 51.8 °F - 49.6 °F 92% 29.98 in 10.0 mi WNW 6.9 mph - N/A   Overcast
6:15 PM 51.8 °F - 49.3 °F 91% 29.99 in 10.0 mi WNW 8.1 mph - N/A   Overcast
6:16 PM 51.8 °F - 49.3 °F 91% 30.00 in 10.0 mi WNW 6.9 mph - N/A   Overcast
6:35 PM 51.8 °F - 48.6 °F 89% 30.00 in 10.0 mi Calm Calm - N/A   Overcast
6:55 PM 51.4 °F - 48.2 °F 89% 30.00 in 10.0 mi NW 3.5 mph - N/A   Overcast
7:15 PM 51.3 °F - 47.8 °F 88% 30.01 in 10.0 mi WNW 4.6 mph - N/A   Overcast
7:16 PM 51.3 °F - 47.8 °F 88% 30.01 in 10.0 mi WNW 3.5 mph - N/A   Overcast
7:35 PM 51.1 °F - 47.5 °F 87% 30.01 in 10.0 mi Calm Calm - N/A   Overcast
7:36 PM 51.1 °F - 47.5 °F 87% 30.01 in 10.0 mi Calm Calm - N/A   Overcast
7:55 PM 51.3 °F - 47.5 °F 87% 30.02 in 10.0 mi West 4.6 mph - N/A   Overcast
7:56 PM 51.3 °F - 47.5 °F 87% 30.02 in 10.0 mi West 3.5 mph - N/A   Overcast
8:15 PM 51.1 °F - 47.5 °F 87% 30.03 in 10.0 mi West 3.5 mph - N/A   Overcast
8:35 PM 50.9 °F - 47.3 °F 87% 30.04 in 10.0 mi Calm Calm - N/A   Overcast
8:36 PM 50.9 °F - 47.3 °F 87% 30.04 in 10.0 mi Calm Calm - N/A   Overcast
8:55 PM 50.4 °F - 47.3 °F 89% 30.04 in 10.0 mi Calm Calm - N/A   Overcast
8:56 PM 50.5 °F - 47.5 °F 89% 30.04 in 10.0 mi Calm Calm - N/A   Overcast
9:15 PM 50.4 °F - 47.5 °F 90% 30.06 in 10.0 mi West 5.8 mph - N/A   Overcast
9:35 PM 50.0 °F - 47.3 °F 90% 30.06 in 10.0 mi West 6.9 mph - N/A   Overcast
9:55 PM 49.1 °F - 47.3 °F 93% 30.06 in 4.0 mi West 4.6 mph - N/A   Overcast
9:56 PM 49.1 °F - 47.3 °F 93% 30.06 in 4.0 mi West 4.6 mph - N/A   Overcast
10:15 PM 48.6 °F - 46.8 °F 93% 30.07 in 3.0 mi NW 4.6 mph - N/A   Overcast
10:35 PM 48.2 °F - 46.8 °F 95% 30.07 in 3.0 mi West 3.5 mph - N/A   Overcast
10:55 PM 47.3 °F - 45.9 °F 95% 30.08 in 4.0 mi West 5.8 mph - N/A   Overcast
11:15 PM 46.6 °F - 45.3 °F 95% 30.08 in 4.0 mi West 6.9 mph - N/A   Overcast
11:16 PM 46.6 °F - 45.3 °F 95% 30.08 in 4.0 mi West 5.8 mph - N/A   Overcast
11:35 PM 46.4 °F 44.3 °F 45.0 °F 95% 30.08 in 3.0 mi West 4.6 mph - N/A   Overcast
11:36 PM 46.4 °F 45.2 °F 45.0 °F 95% 30.08 in 3.0 mi West 3.5 mph - N/A   Overcast
11:55 PM 46.2 °F - 44.8 °F 95% 30.08 in 2.5 mi Calm Calm - N/A   Overcast